Regional Weather Roundup
Issued by NWS

Home | Current Version | Previous Version | Graphics & Text | Print | Product List | Glossary Off
Versions: 1 2 3 4 5 6 7 8 9 10 11 12 13 14 15 16 17 18 19 20 21 22 23 24 25 26 27 28 29 30 31 32 33 34 35 36 37 38 39 40 41 42 43 44 45 46 47 48 49 50

684
ASUS43 KMPX 241010
RWRMN
WEATHER ROUNDUP FOR MINNESOTA
NATIONAL WEATHER SERVICE TWIN CITIES/CHANHASSEN MN
500 AM CDT FRI MAR 24 2017


NOTE: "FAIR" INDICATES FEW OR NO CLOUDS BELOW 12,000 FEET WITH NO
SIGNIFICANT WEATHER AND/OR OBSTRUCTIONS TO VISIBILITY. N/A MEANS
CURRENT SKY AND/OR WEATHER CONDITIONS ARE NOT AVAILABLE.

MNZ060>063-068>070-241100-
   Twin Cities Metro

CITY           SKY/WX    TMP DP  RH WIND       PRES   REMARKS
TWIN CITIES    CLOUDY    39  36  89 N7        29.85R
ST PAUL        CLOUDY    39  38  96 N5        29.87R
CRYSTAL        CLOUDY    37  35  92 NE5       29.85R FOG
BLAINE         CLOUDY    37  37 100 N7        29.85R FOG
LAKEVILLE      CLOUDY    36  36 100 NE3       29.82R FOG
EDEN PRAIRIE   CLOUDY    40  37  89 N6        29.84R FOG
SOUTH ST PAUL  CLOUDY    39  37  93 CALM      29.84R
LAKE ELMO      CLOUDY    37  37 100 N5        29.85R FOG
$$
MNZ001>005-007-008-013>017-022>024-027-028-241100-
   Northwest Minnesota

CITY           SKY/WX    TMP DP  RH WIND       PRES   REMARKS
BEMIDJI        CLOUDY    32  32 100 N3        29.91S FOG
HALLOCK        PTCLDY    30  27  86 N9        30.03R WCI  22
ROSEAU         PTCLDY    30  27  86 N10       29.98R WCI  21
WARROAD        CLEAR     30  27  86 NW9       29.97R WCI  22
THIEF RVR FALL CLOUDY    33  31  92 N13G22    29.97R WCI  24
CROOKSTON      CLOUDY    32  30  93 N9        29.98R FOG     WCI  24
FOSSTON        CLOUDY    30  30 100 N15       29.94R FOG     WCI  19
DETROIT LAKES  CLOUDY    34  32  93 CALM      29.93R FOG
MOORHEAD       CLOUDY    34  32  93 N3        29.95R FOG
PARK RAPIDS    CLOUDY    34  31  88 CALM      29.90S FOG
MAHNOMEN       CLOUDY    33  33  98 N8        29.93R FOG     WCI  26
$$
MNZ006-009>011-018-025>026-241100-
   North Central Minnesota

CITY           SKY/WX    TMP DP  RH WIND       PRES   REMARKS
BAUDETTE       CLEAR     32  30  92 NW9       29.93R WCI  24
FLAG ISLAND    CLEAR     30  27  86 NW12      29.97R WCI  21
INTL FALLS     CLOUDY    32  30  92 NW5       29.91R FOG     WCI  27
BIG FORK       CLOUDY    34  32  93 CALM      29.91R FOG
LONGVILLE      CLOUDY    32  32 100 CALM      29.89F FOG
GRAND RAPIDS   CLOUDY    32  30  93 NW3       29.91F FOG
CRANE LAKE     CLOUDY    30  30 100 CALM      29.92R FOG
ORR            CLOUDY    32  30  93 CALM      29.88R FOG
COOK           CLOUDY    32  32 100 W3        29.90R FOG
WALKER         FOG       32  31  99 CALM      29.91S VSB 1
$$
MNZ012-019>021-037-241100-
   Northeast Minnesota

CITY           SKY/WX    TMP DP  RH WIND       PRES   REMARKS
DULUTH         DRIZZLE   33  32  96 N7        29.87S FOG     WCI  27
ELY            CLOUDY    32  32 100 CALM      29.89R FOG
HIBBING        CLOUDY    31  31 100 CALM      29.88F FOG
EVELETH        CLOUDY    32  32  98 CALM      29.89F FOG
DULUTH HARBOR  CLOUDY    34  34 100 CALM      29.91S FOG
TWO HARBORS    CLOUDY    36  30  80 CALM      29.86F HAZE
SILVER BAY     CLOUDY    34  34 100 CALM      29.86F FOG
GRAND MARAIS     N/A     33  32  96 CALM      29.90S
G MARAIS ARPRT CLOUDY    28  27  93 CALM      29.86S FOG
$$
MNZ029>031-032-039>041-046>048-054>057-064-241100-
   West Central Minnesota

CITY           SKY/WX    TMP DP  RH WIND       PRES   REMARKS
FERGUS FALLS   CLOUDY    34  34 100 N5        29.96R FOG     WCI  30
WHEATON        CLOUDY    34  34 100 NW3       29.95R FOG
MORRIS         CLOUDY    36  34  93 N9        29.89R FOG
ALEXANDRIA     CLOUDY    34  33  96 N8        29.89R FOG     WCI  27
ELBOW LAKE     CLOUDY    33  33 100 CALM      29.92R FOG
WADENA         CLOUDY    32  32 100 N5        29.90R FOG     WCI  27
GLENWOOD       CLOUDY    34  34 100 N8        29.88R FOG     WCI  27
APPLETON       CLOUDY    36  34  93 CALM      29.89R FOG
BENSON         CLOUDY    37  34  87 NE5       29.90R FOG
ORTONVILLE     FOG       34  32  93 N8        29.91R VSB 1   WCI  27
MADISON        CLOUDY    37  37 100 N9        29.89R FOG
WILLMAR        CLOUDY    36  36 100 N9        29.88R FOG
$$
MNZ033>034-036-042>043-049>051-058-059-241100-
   Central Minnesota

CITY           SKY/WX    TMP DP  RH WIND       PRES   REMARKS
ST CLOUD       CLOUDY    34  34 100 N8        29.88R FOG     WCI  27
SAUK CENTRE    CLOUDY    33  33  99 CALM      29.89R FOG
PAYNESVILLE      N/A     34  34 100 N8        29.88R FOG     WCI  27
AITKIN         CLOUDY    36  30  80 N3        29.87F FOG
PINE RIVER     CLOUDY    32  32 100 NW3       29.93S FOG
BRAINERD       CLOUDY    33  32  96 N5        29.89S FOG     WCI  29
STAPLES        CLOUDY    30  30 100 NW6       29.90R FOG     WCI  24
LONG PRAIRIE   CLOUDY    32  32 100 NW7       29.89R FOG     WCI  26
LITTLE FALLS   CLOUDY    32  32 100 CALM      29.89R FOG
LITCHFIELD     CLOUDY    37  36  93 N7        29.87R FOG
BUFFALO        CLOUDY    36  34  95 N7        29.87R FOG
MAPLE LAKE     CLOUDY    37  36  99 N7        29.87R FOG
HUTCHINSON     CLOUDY    37  37 100 N5        29.87R FOG
$$
MNZ037-044-045-052-053-241100-
   East Central Minnesota

CITY           SKY/WX    TMP DP  RH WIND       PRES   REMARKS
PRINCETON      DRIZZLE   36  34  93 N8        29.88R
MORA           CLOUDY    34  32  93 CALM      29.91R FOG
CAMBRIDGE      DRIZZLE   36  32  87 N5        29.87R
RUSH CITY      DRIZZLE   33  32  96 N5        29.89S WCI  29
MOOSE LAKE     CLOUDY    32  32 100 CALM      29.87R FOG
HINCKLEY       CLOUDY    34  34 100 N3        29.90R FOG
CLOQUET        CLOUDY    34  30  86 N5        29.87F FOG     WCI  30
MCGREGOR       CLOUDY    32  32 100 N3        29.88F
$$
MNZ071>073-080-081-089-090-097-098-241100-
   Southwest Minnesota

CITY           SKY/WX    TMP DP  RH WIND       PRES   REMARKS
MONTEVIDEO     CLOUDY    36  36 100 NE7       29.89R FOG
GRANITE FALLS  CLOUDY    37  36  97 N8        29.88R FOG
CANBY          FOG       35  35  99 CALM      29.89R VSB 3/4
MARSHALL       FOG       35  34  96 N10       29.87R VSB 1   WCI  27
REDWOOD FALLS  MIX PCPN  37  35  92 N6        29.86R FOG
OLIVIA         LGT RAIN  36  34  93 NE7       29.86R
PIPESTONE      CLOUDY    36  32  87 N8        29.83R FOG
WINDOM         DRZL/FOG  37  37 100 N13       29.77F VSB 1/2
WORTHINGTON    CLOUDY    37  36  96 N9        29.83R FOG
JACKSON        DRIZZLE   37  37 100 NE12      29.77F
TRACY          FOG       36  36 100 N10       29.84S VSB 1/4
SLAYTON        FOG       34  34 100 N12       29.82S VSB 1/4 WCI  26
$$
MNZ065>067-074>077-082>085-091>093-241100-
   South Central Minnesota

CITY           SKY/WX    TMP DP  RH WIND       PRES   REMARKS
MANKATO        LGT RAIN  38  37  97 N8        29.84R FOG
NEW ULM        LGT RAIN  37  37 100 NE6       29.84R
ST JAMES       LGT RAIN  37  37 100 CALM      29.82S
FAIRMONT       LGT RAIN  39  37  93 N12       29.78R FOG
GLENCOE        CLOUDY    38  38 100 N5        29.85R FOG
FARIBAULT      DRIZZLE   37  37 100 N3        29.83R
OWATONNA       LGT RAIN  37  36  93 NE8       29.80R
WASECA         RAIN      36  36 100 NE12      29.81R
ALBERT LEA     MIX PCPN  39  39 100 SE9       29.75F
$$
MNZ078>079-086>088-094>096-241100-
   Southeast Minnesota

CITY           SKY/WX    TMP DP  RH WIND       PRES   REMARKS
ROCHESTER      CLOUDY    38  38 100 SE8       29.77F FOG
RED WING       DRIZZLE   39  36  87 E7        29.81F
STANTON        LGT RAIN  39  36  89 NE7       29.80F
DODGE CENTER   LGT RAIN  37  36  93 N14       29.73F
WINONA         RAIN      37  37 100 E7        29.81F
AUSTIN         CLOUDY    41  39  93 E6        29.74R FOG
PRESTON        CLOUDY    39  37  93 E6        29.79F FOG
$$
ABBREVIATIONS USED IN REMARKS
   TC - TEMPERATURES IN CELSIUS
  WCI - WIND CHILL INDEX
   HX - HEAT INDEX
  VSB - VISIBILITY
$$




USA.gov is the U.S. government's official web portal to all federal, state and local government web resources and services.